Weather in Novoye Yushkozero

Russia / Republic of Karelia     64°46′29″N   32°13′30″E
temp.,
°C
wind,
m/s
gust,
m/s
humid.,
%
clouds,
%
prec.,
mm/h
press.,
hPa
HPBL,
m
1 march, mon
mon100:00+1wsw5119694 0.0 1009545
03:00+2w5149797 0.0 1008630
06:00+2w61493100 0.0 1005682
09:00+2w51389100 0.0 1005754
12:00+2w51297100 0.0 1003753
15:00+2w41191100 0.1 1002818
18:00+1w6139597 0.1 1000987
21:00−1w5148380 0.3 1000821
2 march, tue
tue200:00−2wnw616780 0.0 999835
03:00−3wnw615818 0.0 1000812
06:00−3nw5138699 0.0 1001807
09:00−5nw5147966 0.0 1004804
12:00−4nw612760 0.0 10061167
15:00−3nw612700 0.0 10091268
18:00−5wnw4128324 0.0 1009504
21:00−5wnw4128821 0.0 1009436
3 march, wed
wed300:00−5wnw3119359 0.0 1008304
03:00−5wnw4129230 0.0 1009397
06:00−6wnw4109380 0.0 1008309
09:00−6wnw399569 0.0 1008279
12:00−4w378864 0.0 1006381
15:00−2w268471 0.0 1004471
18:00−4wsw2493100 0.0 100093
21:00−5nw2395100 0.0 99870
4 march, thu
thu400:00−6n2397100 0.1 99896
03:00−7n3696100 0.4 999251
06:00−7n3795100 0.6 1000409
09:00−10nnw389398 0.8 1000305
12:00−7nnw488461 0.0 1001597
15:00−6nnw489074 0.1 1002819
18:00−7nnw3895100 0.5 1002577
21:00−9nnw2696100 0.8 1003216
5 march, fri
fri500:00−10nne2297100 0.3 100469
03:00−12nne129689 0.3 100525
06:00−11n1296100 0.3 100729
09:00−13nnw249691 0.4 100998
12:00−10n239097 0.2 1011403
15:00−9nnw238399 0.3 1013642
18:00−11nw229130 0.0 101421
21:00−13w239125 0.0 101536